Location: River House Observatory
(37.8577°N, 76.3548°W)
Time: 06:36:03
(UTC-04:00)

Daily predictions for brighter satellites

Satellite Brightness Start Highest point End
(mag) Time Altitude Azimuth Time Altitude Azimuth Time Altitude Azimuth
Cosmos 2333 Rocket 2.4 20:52:12 10° NNW 20:57:53 81° WSW 21:03:30 10° SSE
SAR-Lupe-4 4.5 20:59:27 10° SE 21:02:42 33° ENE 21:05:57 10° N
Aureole 2 Rocket 2.8 20:59:56 10° NNW 21:04:02 88° ENE 21:07:52 10° SSE
Cosmos 2221 3.8 21:04:15 10° NNE 21:07:55 25° ENE 21:11:34 10° SE
Envisat 3.0 21:04:19 10° SSE 21:09:23 88° ENE 21:14:29 10° NNW
Meteor 1-29 3.1 21:08:56 10° NNE 21:12:17 50° E 21:15:39 10° S
SL-8 R/B 3.9 21:10:29 10° WNW 21:15:14 65° SW 21:19:48 11° SE
USA 186 3.3 21:16:05 10° SSW 21:18:04 23° W 21:20:01 10° NW
NOSS 0 Rocket 4.5 21:12:15 10° NNW 21:18:22 61° WSW 21:24:28 10° S
Cosmos 1140 Rocket 3.5 21:15:29 10° SSW 21:20:39 89° ESE 21:25:50 10° NNE
Cosmos 2082 4.1 21:15:13 10° SSW 21:20:47 68° WNW 21:26:25 10° NNE
USA 32 4.1 21:16:00 10° S 21:21:10 63° E 21:26:21 10° N
SAR-Lupe-1 4.4 21:18:38 10° SSE 21:22:06 50° ENE 21:25:36 10° N
Cosmos 1242 Rocket 4.1 21:23:09 10° NNE 21:26:08 22° ENE 21:28:21 14° ESE
Meteor 2-15 4.5 21:21:20 10° S 21:27:23 86° W 21:33:29 10° N
Cosmos 2297 Rocket 2.8 21:21:51 10° SSW 21:27:27 64° WNW 21:33:05 10° NNE
Resurs 01 Rocket 3.8 21:24:50 10° SSW 21:28:27 25° W 21:32:04 10° NW
Cosmos 1939 Rocket 3.3 21:28:27 10° S 21:32:22 61° W 21:36:24 10° NNW
H-2A ROCKET BODY 3.5 21:31:37 10° SSE 21:35:18 13° ESE 21:37:24 10° ESE
Cosmos 1867 3.7 21:29:57 10° S 21:35:11 52° ESE 21:40:28 10° NE
Cosmos 2100 Rocket 4.3 21:33:58 10° N 21:40:06 52° E 21:45:23 14° SSE
Cosmos 1459 Rocket 4.4 21:34:05 10° N 21:40:09 48° E 21:45:04 15° SSE
Cosmos 1340 Rocket 3.2 21:39:30 10° SSW 21:43:28 66° W 21:47:30 10° N
ATLAS 5 CENTAUR R/B 1.8 21:43:29 10° SW 21:48:04 81° WNW 21:53:04 10° NNE
SPOT 5 3.4 21:49:06 19° SE 21:52:10 43° ENE 21:56:54 10° N
Cosmos 1850 Rocket 4.0 21:47:09 10° SSW 21:52:18 82° WNW 21:57:32 10° NNE
Cosmos 2173 Rocket 4.1 21:47:16 10° N 21:53:21 60° E 21:58:06 17° SSE
Cosmos 2084 3.2 21:50:24 10° SSW 21:54:27 86° WNW 21:58:20 10° NNE
YAOGAN 6 3.5 21:51:03 10° S 21:54:32 46° W 21:58:04 10° NNW
Lacrosse 5 3.5 21:50:45 10° NNW 21:54:54 25° NE 21:58:57 10° E
CZ-4B DEB 4.3 21:54:55 10° SSW 21:57:33 29° W 22:00:12 10° NW
Helios 1B rocket 4.3 21:54:01 10° N 21:57:44 32° WNW 22:01:26 10° SW
Cosmos 2237 Rocket 3.5 21:52:47 10° NW 21:57:51 35° WSW 22:02:53 10° SSW
Cosmos 1726 3.5 21:54:52 10° NNE 21:57:53 23° ENE 21:58:49 21° E
USA 234 3.2 21:53:01 10° NE 21:59:34 78° SE 22:06:06 10° SW
CZ-3B R/B 3.7 21:59:40 10° SW 22:02:26 86° NW 22:11:21 10° NE
H-2A R/B 2.7 22:00:47 22° SE 22:03:47 41° ENE 22:08:50 10° N
ERS-1 Rocket 3.1 22:01:42 15° S 22:05:52 72° WSW 22:10:55 10° NNW
Atlas Centaur 2 2.4 22:03:46 10° WSW 22:06:33 21° S 22:06:40 21° S
Cosmos 1802 Rocket 3.9 22:05:53 10° N 22:12:01 73° E 22:16:08 22° SSE
Cosmos 1818 3.5 22:07:44 10° NNW 22:13:12 87° WSW 22:16:16 27° SSE
Cosmos 1725 Rocket 4.5 22:08:51 10° N 22:14:47 44° ENE 22:17:52 26° SE
Cosmos 1674 3.3 22:12:38 11° SSW 22:16:07 54° W 22:19:50 10° N
Cosmos 1908 3.5 22:14:05 10° NNW 22:17:55 63° W 22:20:02 25° S
SL-16 R/B 2.7 22:15:56 10° NNW 22:21:28 56° WSW 22:25:09 21° S
Landsat 7 4.4 22:20:56 29° ESE 22:22:43 41° ENE 22:27:10 10° N
ARGOS 3.2 22:20:18 24° S 22:23:43 83° WSW 22:29:10 10° NNW
Cosmos 1408 Rocket 3.5 22:23:35 22° SSW 22:26:20 80° W 22:30:40 10° N
KORONAS-FOTON 4.1 22:24:13 21° SSW 22:26:36 63° W 22:30:23 10° N
Tiangong 1 2.8 22:32:59 10° WNW 22:35:28 28° N 22:36:46 19° NE
Terra 2.5 22:36:22 33° ESE 22:37:39 41° ENE 22:42:06 10° N
DMSP B5D2-2 4.1 22:32:50 10° NNE 22:38:02 63° ESE 22:40:08 35° SSE
Cosmos 2058 3.9 22:38:51 31° E 22:38:51 31° E 22:42:28 10° NNE
Cosmos 2016 Rocket 4.1 22:37:44 10° N 22:44:00 75° W 22:47:32 27° S
Cosmos 1500 Rocket 3.7 22:45:14 50° SE 22:45:56 56° E 22:50:19 10° NNE
Cosmos 332 Rocket 3.7 22:48:23 10° NNW 22:53:19 83° ENE 22:54:33 52° SSE
Cosmos 2151 3.0 22:54:01 56° ESE 22:54:14 57° E 22:58:28 10° NNE
ERBS 4.0 22:51:30 10° NNW 22:54:20 24° NE 22:54:40 24° NE
CARTOSAT-1 3.5 22:55:32 57° ESE 22:56:05 64° ENE 23:00:22 10° N
Cosmos 1814 Rocket 4.0 22:51:23 10° NNW 22:56:45 76° ENE 22:58:11 49° SE
SPOT 1/Viking Rocket 3.9 22:56:35 33° SSW 22:58:39 56° W 23:03:44 10° NNW
Cosmos 1486 Rocket 3.9 22:57:03 41° S 22:58:56 79° ESE 23:04:15 10° NNE
Meteor 1-27 4.5 22:53:13 10° N 22:58:57 57° ENE 23:00:29 44° SE
RESURS DK-1 2.2 22:54:46 10° NNW 22:58:58 87° WSW 22:59:21 73° SSE
Cosmos 2233 Rocket 3.9 23:03:16 10° N 23:09:30 75° E 23:11:20 47° SSE
Cosmos 841 Rocket 3.6 23:05:06 10° N 23:10:19 61° ENE 23:11:13 52° ESE
SL-14 R/B 4.4 23:10:43 32° WSW 23:11:52 40° W 23:15:36 10° N
Cosmos 1328 Rocket 4.1 23:07:51 10° NNW 23:12:04 51° W 23:12:50 45° SW
Cosmos 2228 Rocket 3.6 23:09:03 10° NNW 23:13:33 56° W 23:14:28 47° SW
Cosmos 1763 Rocket 3.3 23:08:40 10° NNW 23:13:47 85° ENE 23:14:35 64° SSE
Cosmos 1515 Rocket 3.6 23:11:20 10° NNW 23:15:38 67° W 23:16:02 63° SW
H-2A R/B 1.9 23:17:20 82° SE 23:17:29 85° ENE 23:21:47 10° NNW
Cosmos 1743 Rocket 4.5 23:16:55 32° WSW 23:18:16 42° W 23:22:24 10° N
Cosmos 2263 Rocket 2.0 23:21:43 50° SSW 23:23:16 89° ESE 23:28:53 10° NNE
Cosmos 1151 Rocket 3.1 23:20:19 10° NNW 23:24:42 71° W 23:24:51 70° WSW
Cosmos 1300 4.1 23:21:21 10° NNW 23:24:43 30° W 23:25:01 29° W
Cosmos 1626 2.6 23:25:43 57° N 23:25:43 57° N 23:28:46 10° N
SL-19 R/B 4.3 23:23:42 10° N 23:29:02 73° WNW 23:30:50 43° SW
Cosmos 1726 4.4 23:30:33 10° NW 23:32:59 17° W 23:33:26 17° W
IGS 5A 4.1 23:33:58 46° W 23:33:58 46° W 23:37:57 10° NNW
Lacrosse 5 1.9 23:33:12 10° NW 23:38:08 62° WSW 23:38:08 62° WSW
Meteor 2-12 Rocket 4.4 23:33:12 10° N 23:39:15 75° W 23:40:35 55° SSW
H-2A R/B 3.8 23:41:24 19° WSW 23:43:19 23° W 23:47:30 10° NW
Cosmos 371 Rocket 4.2 23:39:41 10° NW 23:44:04 36° WSW 23:44:22 36° WSW
Cosmos 1503 Rocket 3.9 23:43:58 68° SW 23:44:34 78° WNW 23:49:46 10° NNE
Abrixas rocket 4.5 23:45:59 10° NW 23:47:34 25° NW 23:47:34 25° NW
Cosmos 2285 Rocket 3.9 23:43:11 10° NNW 23:49:33 79° ENE 23:50:38 62° SE
CZ-4C R/B 3.9 23:53:11 63° NNW 23:53:11 63° NNW 23:56:53 10° NNW
